Location: Bli��� Lhota
(48.7570°N, 14.0120°E)
Time: 08:41:15
(UTC+00:00)

NOSS 3-2 (A) - Pass Details

Date: 18 September 2020
Orbit: 795 x 1413 km, 63.4° (Epoch: 02 October)

Event Time Altitude Azimuth Distance (km) Brightness Sun altitude
Rises 18:09:57 0° 317° (NW) 3,872 7.7 -10.6°
Reaches altitude 10° 18:12:30 10° 321° (NW) 2,999 6.9 -11.0°
Maximum altitude 18:19:44 62° 42° (NE) 1,380 4.2 -12.2°
Enters shadow 18:26:32 16° 120° (ESE) 2,931 5.4 -13.3°
